Louisville, KY

4:07 PM EDT on July 23, 2016 (GMT -0400)
Bowman

Weather History for KLOU - May, 2012

Change the Weather History Date:

Friday, May 18, 2012

  Actual Average Record
Temperature  
Mean Temperature 70 °F 67 °F  
Max Temperature 85 °F 77 °F 91 °F (1951)
Min Temperature 54 °F 57 °F 41 °F (1973)
Degree Days  
Heating Degree Days 0 2  
Month to date heating degree days 6 57  
Since 1 July heating degree days 3187 4248  
Cooling Degree Days 5 4  
Month to date cooling degree days 116 46  
Year to date cooling degree days 224 80  
Growing Degree Days 19 (Base 50)    
Moisture  
Dew Point 52 °F    
Average Humidity 60    
Maximum Humidity 83    
Minimum Humidity 37    
Precipitation  
Precipitation 0.00 in 0.16 in 1.44 in (1981)
Month to date precipitation 3.72 3.15  
Year to date precipitation 18.42 17.95  
Sea Level Pressure  
Sea Level Pressure 30.04 in    
Wind  
Wind Speed 3 mph (ENE)    
Max Wind Speed 8 mph    
Max Gust Speed 12 mph    
Visibility 10 miles    
Events      
T = Trace of Precipitation, MM = Missing Value Source: NWS Daily Summary

Daily Weather History Graph

Daily Weather History Graph

Search for Another Location

Airport or City:

Trip Planner

Search our weather history database for the weather conditions in past years. The results will help you decide how hot, cold, wet, or windy it might be!

Date:

Astronomy

May. 18, 2012 Rise Set
Actual Time 6:28 AM EDT 8:49 PM EDT
Civil Twilight 5:58 AM EDT 9:19 PM EDT
Nautical Twilight 5:22 AM EDT 9:56 PM EDT
Astronomical Twilight 4:41 AM EDT 10:37 PM EDT
Moon 4:56 AM EDT (5/18) 6:58 PM EDT (5/18)
Length of Visible Light 15h 20m
Length of Day
14h 20m
Waning Crescent, 5% of the Moon is Illuminated
May 18
Waning Crescent
May 20
New
May 28
First Quarter
Jun 4
Full
Jun 11
Last Quarter

Hourly Weather History & Observations

Time (EDT) Temp. Heat Index Dew Point Humidity Pressure Visibility Wind Dir Wind Speed Gust Speed Precip Events Conditions
12:53 AM 64.9 °F - 43.0 °F 45% 30.05 in 10.0 mi Calm Calm - N/A   Clear
1:53 AM 64.0 °F - 43.0 °F 46% 30.04 in 10.0 mi NE 3.5 mph - N/A   Clear
2:53 AM 61.0 °F - 45.0 °F 56% 30.04 in 10.0 mi NNW 3.5 mph - N/A   Clear
3:53 AM 59.0 °F - 46.0 °F 62% 30.04 in 10.0 mi Calm Calm - N/A   Clear
4:53 AM 57.9 °F - 48.0 °F 70% 30.05 in 10.0 mi NNW 3.5 mph - N/A   Clear
5:53 AM 57.0 °F - 48.9 °F 74% 30.06 in 10.0 mi Calm Calm - N/A   Clear
6:53 AM 54.0 °F - 48.0 °F 80% 30.06 in 10.0 mi Calm Calm - N/A   Clear
7:53 AM 59.0 °F - 48.0 °F 67% 30.08 in 10.0 mi Calm Calm - N/A   Clear
8:53 AM 64.9 °F - 46.9 °F 52% 30.09 in 10.0 mi Calm Calm - N/A   Clear
9:53 AM 69.1 °F - 48.0 °F 47% 30.09 in 10.0 mi ESE 3.5 mph - N/A   Clear
10:53 AM 73.0 °F - 51.1 °F 46% 30.09 in 10.0 mi Variable 3.5 mph - N/A   Clear
11:53 AM 75.9 °F - 54.0 °F 46% 30.08 in 10.0 mi Calm Calm - N/A   Clear
12:53 PM 80.1 °F 80.2 °F 55.9 °F 43% 30.07 in 10.0 mi Variable 3.5 mph - N/A   Clear
1:53 PM 82.0 °F 81.7 °F 57.0 °F 42% 30.05 in 10.0 mi Variable 4.6 mph - N/A   Clear
2:53 PM 82.9 °F 82.1 °F 55.9 °F 39% 30.04 in 10.0 mi NNW 6.9 mph - N/A   Clear
3:53 PM 82.9 °F 82.4 °F 57.0 °F 41% 30.02 in 10.0 mi SSW 6.9 mph - N/A   Clear
4:53 PM 84.9 °F 83.7 °F 55.9 °F 37% 30.01 in 10.0 mi NE 5.8 mph - N/A   Mostly Cloudy
5:53 PM 84.0 °F 83.0 °F 55.9 °F 38% 30.00 in 10.0 mi Calm Calm - N/A   Clear
6:53 PM 84.0 °F 83.0 °F 55.9 °F 38% 30.00 in 10.0 mi ENE 4.6 mph - N/A   Scattered Clouds
7:53 PM 82.9 °F 82.1 °F 55.9 °F 39% 29.99 in 10.0 mi East 4.6 mph - N/A   Clear
8:53 PM 81.0 °F 80.8 °F 55.9 °F 42% 30.00 in 10.0 mi East 3.5 mph - N/A   Clear
9:53 PM 78.1 °F - 57.9 °F 50% 30.01 in 10.0 mi ENE 3.5 mph - N/A   Clear
10:53 PM 75.9 °F - 55.0 °F 48% 30.03 in 10.0 mi East 5.8 mph - N/A   Clear
11:53 PM 75.0 °F - 55.0 °F 50% 30.04 in 10.0 mi East 4.6 mph - N/A   Clear